STARLINK-5501 (55648 NORAD) Tracking and Keplerian Element Data

This shows tracking and keplerian element data for the satellite.

Feedback or suggestion? Click here.




ElementValue
Catalog55648
NameSTARLINK-5501
Epoch Orbit130
Epoch Day62.91667824
Epoch Year2023
RAAN110.1977
Inclination69.9997
Eccentricity0.0003491
Argument of Perigee276.4343
Mean Anonmoly320.4801
Mean Motion15.75012629
Decay Rate-0.01031262
L11 55648U 23021W 23062.91667824 -.01031262 00000+0 -76532-2 0 9993
L22 55648 69.9997 110.1977 0003491 276.4343 320.4801 15.75012629 1301



Live tracking and technical data element details for STARLINK-5501 (NORAD 55648). STARLINK-5501 can be tracked NOW for your location showing map with azimuth and elevation plus other details from your city location.







IsCatalogInMostPopularTable: catalog: 55648, numindb: 2
Update: records affected: 1



GetName: 55648 STARLINK-5501

Hit Count: updated at: Wed, 22 Mar 2023 16:01:03 GMT